EZY484L EGGW-EGAA

Flight info

Callsign EZY484L
Flight time 0h 49m
Altitude 34000
Route OLNEY T420 TNT UL28 RODOL UM65 TENSO L603 BELOX DCT REMSI DCT UVPOK M147 ROBOP M146 IPSET P6 BELZU
Aircraft A320/M-SDE3FGHIRWY/LB1

Departure

Time 2026-05-04 08:50
Airport London Luton Airport (EGGW)

Arrival

Time 2026-05-04 09:40
Airport Belfast International Airport (EGAA)
Time Latitude Longitude Altitude Speed Heading
2026-05-04 08:38 51.87956 -0.37900 534 ft 0 kts 127°
2026-05-04 08:40 51.87969 -0.37929 534 ft 4 kts 127°
2026-05-04 08:40 51.87982 -0.37957 534 ft 4 kts 153°
2026-05-04 08:41 51.88004 -0.37955 534 ft 4 kts 216°
2026-05-04 08:41 51.88021 -0.37934 534 ft 1 kts 218°
2026-05-04 08:43 51.88019 -0.37937 534 ft 2 kts 217°
2026-05-04 08:44 51.87995 -0.37966 534 ft 8 kts 217°
2026-05-04 08:44 51.87951 -0.38005 534 ft 6 kts 198°
2026-05-04 08:46 51.87590 -0.37451 536 ft 15 kts 181°
2026-05-04 08:46 51.87508 -0.37535 536 ft 14 kts 246°
2026-05-04 08:46 51.87478 -0.37697 536 ft 19 kts 254°
2026-05-04 08:46 51.87449 -0.37868 536 ft 14 kts 253°
2026-05-04 08:47 51.87422 -0.38000 536 ft 11 kts 241°
2026-05-04 08:47 51.87366 -0.38068 535 ft 9 kts 206°
2026-05-04 08:47 51.87361 -0.38072 535 ft 0 kts 206°
2026-05-04 08:48 51.87354 -0.38078 534 ft 6 kts 206°
2026-05-04 08:48 51.87295 -0.38108 533 ft 10 kts 182°
2026-05-04 08:48 51.87243 -0.38141 531 ft 9 kts 239°
2026-05-04 08:48 51.87215 -0.38241 528 ft 10 kts 232°
2026-05-04 08:49 51.87207 -0.38302 527 ft 2 kts
2026-05-04 08:50 51.88071 -0.33381 1772 ft 137 kts 72°
2026-05-04 08:50 51.88351 -0.31815 2035 ft 155 kts 72°
2026-05-04 08:51 51.88675 -0.30009 2175 ft 183 kts 72°
2026-05-04 08:51 51.89104 -0.27929 2475 ft 200 kts 60°
2026-05-04 08:51 51.90123 -0.26408 2916 ft 211 kts 22°
2026-05-04 08:51 51.91623 -0.26311 3220 ft 236 kts 341°
2026-05-04 08:52 51.92965 -0.27972 3668 ft 257 kts 302°
2026-05-04 08:52 51.93478 -0.30770 4428 ft 266 kts 272°
2026-05-04 08:52 51.93379 -0.33768 5322 ft 268 kts 262°
2026-05-04 08:52 51.93079 -0.36788 5818 ft 273 kts 262°
2026-05-04 08:53 51.93168 -0.39831 5977 ft 272 kts 289°
2026-05-04 08:54 52.02221 -0.55749 9276 ft 286 kts 313°
2026-05-04 08:55 52.03618 -0.58081 10069 ft 290 kts 312°
2026-05-04 08:55 52.05066 -0.60501 10448 ft 309 kts 313°
2026-05-04 08:55 52.06598 -0.63057 10977 ft 320 kts 313°
2026-05-04 08:55 52.08161 -0.65666 11698 ft 324 kts 313°
2026-05-04 08:57 52.21159 -0.81693 16516 ft 350 kts 327°
2026-05-04 09:01 52.52864 -1.13345 23774 ft 405 kts 326°
2026-05-04 09:01 52.55270 -1.15772 24188 ft 407 kts 326°
2026-05-04 09:01 52.57692 -1.18210 24598 ft 409 kts 326°
2026-05-04 09:01 52.60126 -1.20663 25004 ft 412 kts 326°
2026-05-04 09:02 52.62572 -1.23133 25399 ft 414 kts 327°
2026-05-04 09:02 52.65028 -1.25618 25784 ft 416 kts 327°
2026-05-04 09:02 52.67467 -1.28093 26163 ft 418 kts 327°
2026-05-04 09:02 52.69950 -1.30618 26547 ft 420 kts 327°
2026-05-04 09:03 52.72445 -1.33155 26897 ft 423 kts 327°
2026-05-04 09:03 52.74957 -1.35706 27315 ft 425 kts 328°
2026-05-04 09:03 52.77481 -1.38274 27684 ft 427 kts 328°
2026-05-04 09:03 52.80013 -1.40854 28046 ft 429 kts 329°
2026-05-04 09:04 52.82557 -1.43450 28413 ft 430 kts 329°
2026-05-04 09:04 52.85105 -1.46060 28777 ft 432 kts 329°
2026-05-04 09:04 52.87663 -1.48684 29122 ft 433 kts 329°
2026-05-04 09:04 52.90228 -1.51315 29471 ft 435 kts 329°
2026-05-04 09:05 52.92771 -1.53931 29803 ft 436 kts 330°
2026-05-04 09:05 52.95354 -1.56599 30109 ft 438 kts 330°
2026-05-04 09:05 52.97946 -1.59278 30367 ft 440 kts 330°
2026-05-04 09:05 53.00547 -1.61969 30619 ft 442 kts 330°
2026-05-04 09:06 53.03162 -1.64680 30862 ft 443 kts 330°
2026-05-04 09:07 53.21503 -1.83778 32901 ft 444 kts 330°
2026-05-04 09:08 53.24115 -1.86517 33220 ft 443 kts 330°
2026-05-04 09:08 53.26755 -1.89171 33526 ft 442 kts 332°
2026-05-04 09:08 53.29420 -1.91715 33837 ft 441 kts 333°
2026-05-04 09:08 53.32109 -1.94203 34045 ft 441 kts 333°
2026-05-04 09:09 53.34769 -1.96656 34080 ft 433 kts 334°
2026-05-04 09:09 53.40000 -2.01536 34077 ft 428 kts 333°
2026-05-04 09:10 53.45147 -2.06424 34081 ft 428 kts 333°
2026-05-04 09:10 53.50310 -2.11369 34080 ft 427 kts 333°
2026-05-04 09:11 53.55453 -2.16352 34075 ft 427 kts 330°
2026-05-04 09:11 53.59874 -2.23109 34075 ft 436 kts 310°
2026-05-04 09:12 53.62685 -2.32137 34061 ft 443 kts 294°
2026-05-04 09:14 53.71532 -2.70964 34054 ft 445 kts 295°
2026-05-04 09:14 53.73726 -2.80755 34054 ft 446 kts 295°
2026-05-04 09:15 53.75917 -2.90560 34060 ft 446 kts 295°
2026-05-04 09:15 53.78114 -3.00384 34060 ft 447 kts 295°
2026-05-04 09:17 53.87513 -3.43060 34066 ft 448 kts 295°
2026-05-04 09:18 53.90005 -3.54571 34062 ft 448 kts 295°
2026-05-04 09:18 53.92148 -3.64483 34070 ft 447 kts 295°
2026-05-04 09:19 53.94305 -3.74493 34078 ft 457 kts 294°
2026-05-04 09:19 53.95027 -3.77849 33714 ft 456 kts 295°
2026-05-04 09:19 53.96003 -3.82954 32655 ft 456 kts 287°
2026-05-04 09:20 53.96691 -3.89949 31466 ft 449 kts 282°
2026-05-04 09:20 53.97144 -3.95120 30953 ft 435 kts 283°
2026-05-04 09:20 53.97441 -3.98517 30625 ft 426 kts 283°
2026-05-04 09:20 53.98010 -4.04971 29968 ft 409 kts 283°
2026-05-04 09:21 53.98425 -4.09671 29502 ft 396 kts 283°
2026-05-04 09:21 53.98693 -4.12703 29221 ft 387 kts 283°
2026-05-04 09:21 53.99144 -4.17119 28792 ft 371 kts 289°
2026-05-04 09:21 53.99946 -4.21218 28174 ft 361 kts 299°
2026-05-04 09:22 54.01544 -4.26061 27377 ft 350 kts 310°
2026-05-04 09:22 54.02948 -4.29410 26792 ft 347 kts 309°
2026-05-04 09:22 54.04326 -4.32735 26491 ft 342 kts 309°
2026-05-04 09:22 54.05693 -4.36056 26412 ft 343 kts 309°
2026-05-04 09:23 54.06597 -4.38258 26359 ft 343 kts 309°
2026-05-04 09:23 54.07964 -4.41591 26051 ft 342 kts 309°
2026-05-04 09:23 54.09323 -4.44901 25652 ft 340 kts 309°
2026-05-04 09:23 54.10676 -4.48183 25225 ft 337 kts 309°
2026-05-04 09:25 54.19826 -4.70500 22190 ft 321 kts 307°
2026-05-04 09:25 54.21096 -4.73618 21778 ft 318 kts 307°
2026-05-04 09:26 54.22357 -4.76710 21370 ft 316 kts 307°
2026-05-04 09:26 54.24013 -4.80771 20829 ft 315 kts 307°
2026-05-04 09:26 54.24882 -4.82902 20468 ft 330 kts 307°
2026-05-04 09:26 54.26203 -4.86146 19917 ft 334 kts 307°
2026-05-04 09:27 54.27519 -4.89384 19385 ft 337 kts 306°
2026-05-04 09:27 54.28860 -4.92688 18857 ft 340 kts 306°
2026-05-04 09:27 54.30213 -4.96026 18327 ft 342 kts 306°
2026-05-04 09:27 54.31569 -4.99380 17736 ft 344 kts 306°
2026-05-04 09:28 54.32936 -5.02764 17149 ft 346 kts 306°
2026-05-04 09:28 54.34307 -5.06163 16574 ft 348 kts 306°
2026-05-04 09:28 54.35683 -5.09585 16009 ft 349 kts 305°
2026-05-04 09:28 54.37059 -5.13013 15453 ft 350 kts 305°
2026-05-04 09:29 54.38423 -5.16412 14919 ft 350 kts 304°
2026-05-04 09:29 54.39801 -5.19858 14382 ft 351 kts 304°
2026-05-04 09:29 54.41183 -5.23310 13854 ft 351 kts 304°
2026-05-04 09:29 54.42563 -5.26758 13264 ft 350 kts 304°
2026-05-04 09:30 54.43943 -5.30205 12682 ft 349 kts 304°
2026-05-04 09:30 54.45348 -5.33596 12113 ft 348 kts 310°
2026-05-04 09:30 54.46996 -5.36618 11552 ft 345 kts 315°
2026-05-04 09:30 54.48737 -5.39364 11035 ft 343 kts 319°
2026-05-04 09:31 54.50515 -5.42033 10583 ft 337 kts 319°
2026-05-04 09:31 54.52271 -5.44665 10152 ft 332 kts 319°
2026-05-04 09:31 54.53997 -5.47259 9687 ft 327 kts 319°
2026-05-04 09:31 54.55700 -5.49813 9209 ft 322 kts 319°
2026-05-04 09:32 54.57383 -5.52319 8728 ft 318 kts 319°
2026-05-04 09:32 54.59051 -5.54789 8267 ft 314 kts 319°
2026-05-04 09:34 54.68417 -5.73901 5066 ft 289 kts 301°
2026-05-04 09:34 54.69476 -5.76833 4599 ft 286 kts 301°
2026-05-04 09:34 54.70522 -5.79738 4129 ft 283 kts 301°
2026-05-04 09:34 54.71555 -5.82615 3662 ft 278 kts 302°
2026-05-04 09:35 54.72546 -5.85378 3196 ft 263 kts 302°
2026-05-04 09:35 54.73462 -5.87987 2734 ft 251 kts 298°
2026-05-04 09:35 54.73783 -5.90818 2508 ft 234 kts 265°
2026-05-04 09:35 54.73286 -5.93376 2512 ft 218 kts 248°
2026-05-04 09:37 54.69453 -6.07754 1844 ft 165 kts 249°
2026-05-04 09:37 54.68984 -6.09505 1622 ft 157 kts 249°
2026-05-04 09:38 54.68545 -6.11147 1425 ft 146 kts 249°
2026-05-04 09:38 54.68121 -6.12734 1196 ft 144 kts 249°
2026-05-04 09:38 54.67704 -6.14289 994 ft 142 kts 249°
2026-05-04 09:38 54.67292 -6.15828 793 ft 140 kts 249°
2026-05-04 09:39 54.66885 -6.17344 615 ft 137 kts 249°
2026-05-04 09:39 54.66484 -6.18831 431 ft 137 kts 247°
2026-05-04 09:39 54.66110 -6.20301 275 ft 129 kts 237°
2026-05-04 09:39 54.65790 -6.21431 274 ft 80 kts 245°
2026-05-04 09:40 54.65625 -6.22036 273 ft 33 kts 245°
2026-05-04 09:40 54.65533 -6.22371 276 ft 31 kts 245°
2026-05-04 09:40 54.65477 -6.22580 272 ft 12 kts 244°
2026-05-04 09:40 54.65501 -6.22698 272 ft 13 kts 335°
2026-05-04 09:41 54.65590 -6.22750 272 ft 14 kts 341°
2026-05-04 09:42 54.65773 -6.22212 272 ft 15 kts 83°
2026-05-04 09:43 54.65804 -6.22057 272 ft 13 kts 64°
2026-05-04 09:43 54.65847 -6.21898 273 ft 17 kts 65°
2026-05-04 09:43 54.65903 -6.21692 274 ft 18 kts 65°
2026-05-04 09:43 54.65954 -6.21507 276 ft 17 kts 66°
2026-05-04 09:44 54.65998 -6.21338 275 ft 14 kts 65°
2026-05-04 09:44 54.66034 -6.21223 274 ft 9 kts 43°
2026-05-04 09:44 54.66086 -6.21230 272 ft 7 kts 337°
2026-05-04 09:46 54.66109 -6.21356 275 ft 0 kts 246°